Vorticity
nan nan nan nan nan nan nan nan nan nan nan nan nan nan nan nan nan nan nan nan nan nan
nan 7 8 8 6 7 7 7 7 7 8 9 9 8 8 9 9 9 7 9 11 nan
nan 8 8 8 8 7 7 8 8 8 7 8 8 7 8 9 9 7 8 9 8 nan
nan 9 7 7 8 8 8 8 8 8 8 9 7 10 10 7 7 8 8 9 9 nan
nan 10 8 8 8 9 9 8 8 9 8 6 8 10 8 8 10 10 8 9 9 nan
nan 8 9 9 9 9 9 9 8 8 7 7 9 8 8 10 11 11 11 10 9 nan
nan 9 9 10 11 10 9 10 11 9 9 10 10 10 10 10 10 10 9 8 10 nan
nan 11 11 12 12 11 11 10 11 12 10 9 9 12 10 11 13 8 7 8 10 nan
nan 12 11 11 12 11 12 12 10 9 12 11 12 15 14 9 6 8 6 8 8 nan
nan 10 11 12 13 11 10 10 11 13 12 10 11 13 14 9 8 8 8 8 7 nan
nan 11 14 13 10 9 10 11 8 7 10 11 12 13 12 8 7 8 8 8 9 nan
nan 14 12 12 10 10 10 5 7 14 12 10 12 10 7 9 10 10 9 9 9 nan
nan 15 10 10 12 9 9 12 10 11 10 12 5 9 19 15 10 9 9 9 10 nan
nan nan nan nan nan nan nan nan nan nan nan nan nan nan nan nan nan nan nan nan nan nan
CAPE
1912 1530 1580 1753 1611 1635 1747 2258 2728 2993 3023 3204 3206 3315 3454 3320 3346 3469 3489 3443 3225 2662
1880 1887 1784 2168 1796 1671 2175 1998 2898 3007 2926 3153 3235 3461 3532 3346 3694 3665 3581 3379 3165 2189
1556 1835 1917 1919 1967 1933 1809 2459 2815 3124 3190 3468 3685 3702 3352 3429 3797 3778 3547 3346 3210 3108
1502 1501 1709 1700 1971 2161 2060 2491 2988 3148 3100 3298 3376 3460 3815 3979 3928 3664 3586 3283 3203 3090
1509 1790 1383 1615 1859 2176 2388 2584 3212 3550 3458 3619 3703 3765 3755 3280 3211 3332 3347 3407 3353 2946
1331 1404 1439 1578 1702 1984 2450 2778 2519 3281 3703 3605 3504 3772 3723 3544 3367 3116 3173 3133 2533 1798
1549 1593 1664 1826 2086 2019 2353 2660 2615 2707 3021 3274 3432 3394 3419 3310 2982 3145 2576 1397 1164 634
2104 2102 2180 2663 2718 2454 2586 2837 3026 3203 3355 3566 3480 3210 3181 3029 2982 2046 792 564 406 90
3036 3264 3299 3372 2892 3046 3238 3529 3690 3589 3620 3369 2962 2397 2084 2259 1288 743 498 164 104 162
3449 3649 3786 3373 3436 3587 3610 3520 3156 2955 3191 2914 2572 676 695 473 394 191 227 264 162 62
3394 3644 3281 3274 3055 3117 2973 2287 2647 2522 1532 1102 494 4 65 66 279 329 142 22 35 36
3263 3311 2595 2383 2652 2687 1825 2189 989 986 796 515 272 0 0 44 506 187 10 2 11 3
2857 2252 2207 2013 848 1145 496 57 202 739 409 54 634 0 0 35 216 2 0 12 18 0
2398 2026 545 479 464 229 75 6 397 472 738 52 162 0 0 0 179 34 0 0 0 0